SBIRS GEO-1 (USA 230)

Last updated on Sun Jun 21 2026 00:03:05 GMT+0000 (Coordinated Universal Time)

1 37481U 11019A 26171.25968354 .00000093 00000+0 00000+0 0 9994 2 37481 4.5425 53.1220 0001998 29.5709 331.0681 1.00272301 55421
UTC large
Height (km)
Speed (km/s)
/
Latitude / Longitude
Inclination (degrees)
Orbital Period (minutes)
Azimuth
Elevation
Range (km)
Doppler Factor

Next 0 passes for location: London (51.5072 / 0.1276)

No passes found over London.
SBIRS GEO-1 (USA 230)